Location: Franzen
(48.6167°N, 15.3833°E)
Time: 13:48:04
(UTC+00:00)

Cosmos 2228 Rocket - Pass Details

Date: 22 April 2021
Orbit: 618 x 652 km, 82.5° (Epoch: 16 May)

Event Time Altitude Azimuth Distance (km) Brightness Sun altitude
Exits shadow 22:55:21 34° 48° (NE) 1,035 4.4 -28.9°
Drops below altitude 10° 22:58:11 10° 21° (NNE) 1,996 6.5 -28.9°
Sets 23:00:29 0° 15° (NNE) 2,908 7.6 -28.9°
